supermarktcheck.de alexa rank chart, supermarktcheck.de alexa rank daily changes

supermarktcheck.de alexa rank chart, supermarktcheck.de alexa rank daily changes

supermarktcheck.de
Actual rank:
108 252

RANK HISTORY

Date Rank Diff
2017/06/25 108 252 +2 445
2017/06/24 105 807 -542
2017/06/23 106 349 -414
2017/06/22 106 763 +1 420
2017/06/21 105 343 +168
2017/06/20 105 175 +1 846
2017/06/19 103 329 -891
2017/06/18 104 220 +1 474
2017/06/17 102 746 -440
2017/06/16 103 186 -1 029
2017/06/15 104 215 +641
2017/06/14 103 574 +296
2017/06/13 103 278 -696
2017/06/12 103 974 -1 711
2017/06/11 105 685 -1 057
2017/06/10 106 742 +1 000
2017/06/09 105 742 -579
2017/06/08 106 321 +118
2017/06/07 106 203 -453
2017/06/06 106 656 +1 994
2017/06/05 104 662 +86
2017/06/04 104 576 -1 231
2017/06/03 105 807 +250
2017/06/02 105 557 +919
2017/06/01 104 638 +838
2017/05/31 103 800 +44
2017/05/30 103 756 +249
2017/05/29 103 507 +1 342
2017/05/28 102 165 -53
2017/05/27 102 218 -1 043
2017/05/26 103 261 -658
2017/05/25 103 919 -2 119
2017/05/24 106 038 -1 180
2017/05/23 107 218 +1 634
2017/05/22 105 584 +80
2017/05/21 105 504 +1 077
2017/05/20 104 427 -2 125
2017/05/19 106 552 -3 338
2017/05/18 109 890 -854
2017/05/17 110 744 +3 660
2017/05/16 107 084 +791
2017/05/15 106 293 -1 465
2017/05/14 107 758 +952
2017/05/13 106 806 -1 208
2017/05/12 108 014 +2 910
2017/05/11 105 104 +1 265
2017/05/10 103 839 +2 303
2017/05/09 101 536 +1 458
2017/05/08 100 078 -1 063
2017/05/07 101 141 +453
2017/05/06 100 688 +1 266
2017/05/05 99 422 -149
2017/05/04 99 571 -1 525
2017/05/03 101 096 -126
2017/05/02 101 222 +3 389
2017/05/01 97 833 -550
2017/04/30 98 383 +597
2017/04/29 97 786 +356
2017/04/28 97 430 -330
2017/04/27 97 760 +1 509
2017/04/26 96 251

WIDGET FOR YOUR SITE

DOMAINS WITH THE NEAREST RANK

Domain Rank
tu-sofia.bg 108 247
mtj.com.cn 108 248
cellsaa.com 108 249
audiokinetic.com 108 250
bitjackmine.com 108 251
supermarktcheck.de 108 252
osde.com.ar 108 253
charter118.ir 108 254
imposetonanonymat.com 108 255
osf.io 108 256
fcnantes.com 108 257

DOMAINS WITH THE NEAREST RANK BY TLD .de

Domain Rank
designtagebuch.de 108 088
indivsurvey.de 108 097
jref.de 108 173
hygi.de 108 203
tuev-nord.de 108 241
supermarktcheck.de 108 252
mundmische.de 108 272
clicku.de 108 274
mymonk.de 108 302
sparkasse-regensburg.de 108 308
autokostencheck.de 108 340